GLOBALSTAR M042 [-]

Last updated on Fri Dec 29 2023 00:02:56 GMT+0000 (Coordinated Universal Time)

1 25679U 99019D 23361.55167545 -.00000104 00000+0 -11044-3 0 9999 2 25679 52.0003 128.6710 0002121 261.9710 223.5330 12.22053795119597

Satellite not in orbit

GLOBALSTAR M042 [-]